When you browse on this site, cookies collect data to enhance your experience and personalize the content and advertising you see.
Visit our Privacy Policy to learn more. By continuing to use the site, you agree to this use of cookies and data.
  • En España
  • Lista de países
  • Para 7 días
  • Temperatura del agua
  • El tiempo en el mapa
  • Informadores
  • user-avatar
    Iniciar sesión

    Tiempo cada hora Cherenok

    Hoy, 15 Diciembre, Domingo

    Tiempo Temperatura Precipitaciones Viento Presión Humedad
    00:00 -1°C° 0 mm 5 mps 738 mmHg 96%
    01:00 -1°C° 0 mm 5 mps 738 mmHg 96%
    02:00 -1°C° 0 mm 5 mps 738 mmHg 96%
    03:00 -1°C° 0 mm 5 mps 738 mmHg 96%
    04:00 -1°C° 0 mm 5 mps 737 mmHg 96%
    05:00 -1°C° 0 mm 5 mps 737 mmHg 96%
    06:00 -1°C° 0 mm 5 mps 737 mmHg 96%
    07:00 0°C° 0 mm 5 mps 737 mmHg 96%
    08:00 0°C° 0 mm 5 mps 737 mmHg 96%
    09:00 -1°C° 0 mm 6 mps 737 mmHg 96%
    10:00 +1°C° 0 mm 6 mps 736 mmHg 95%
    11:00 +1°C° 0 mm 6 mps 736 mmHg 95%
    12:00 +1°C° 0.1 mm 6 mps 736 mmHg 95%
    13:00 0°C° 0.1 mm 7 mps 735 mmHg 96%
    14:00 0°C° 0.1 mm 7 mps 735 mmHg 96%
    15:00 0°C° 0.2 mm 7 mps 735 mmHg 96%
    16:00 0°C° 0.2 mm 7 mps 735 mmHg 95%
    17:00 0°C° 0.2 mm 7 mps 735 mmHg 95%
    18:00 +2°C° 1.5 mm 6 mps 735 mmHg 96%
    19:00 +2°C° 1.5 mm 5 mps 735 mmHg 96%
    20:00 +3°C° 1.5 mm 4 mps 735 mmHg 97%
    21:00 +1°C° 0.3 mm 4 mps 736 mmHg 96%
    22:00 +1°C° 0.3 mm 4 mps 736 mmHg 94%
    23:00 0°C° 0.3 mm 4 mps 737 mmHg 93%

    Mañana, 16 Diciembre, Lunes

    Tiempo Temperatura Precipitaciones Viento Presión Humedad
    00:00 -1°C° 0 mm 4 mps 737 mmHg 92%
    01:00 0°C° 0 mm 3 mps 737 mmHg 92%
    02:00 -1°C° 0 mm 3 mps 738 mmHg 92%
    03:00 -1°C° 0 mm 3 mps 738 mmHg 91%
    04:00 -1°C° 0 mm 3 mps 738 mmHg 90%
    05:00 -1°C° 0 mm 3 mps 739 mmHg 89%
    06:00 -2°C° 0 mm 4 mps 739 mmHg 90%
    07:00 -2°C° 0 mm 4 mps 739 mmHg 91%
    08:00 -2°C° 0 mm 4 mps 739 mmHg 91%
    09:00 -1°C° 0.1 mm 5 mps 739 mmHg 93%
    10:00 -1°C° 0.1 mm 5 mps 739 mmHg 94%
    11:00 0°C° 0.1 mm 5 mps 739 mmHg 96%
    12:00 0°C° 0 mm 5 mps 739 mmHg 94%
    13:00 0°C° 0 mm 5 mps 739 mmHg 92%
    14:00 +1°C° 0 mm 5 mps 739 mmHg 90%
    15:00 0°C° 0 mm 5 mps 739 mmHg 90%
    16:00 -1°C° 0 mm 6 mps 739 mmHg 89%
    17:00 -1°C° 0 mm 6 mps 740 mmHg 89%
    18:00 -1°C° 0 mm 6 mps 740 mmHg 87%
    19:00 -1°C° 0 mm 6 mps 740 mmHg 85%
    20:00 -1°C° 0 mm 6 mps 740 mmHg 83%
    21:00 -2°C° 0 mm 6 mps 741 mmHg 84%
    22:00 -2°C° 0 mm 6 mps 741 mmHg 85%
    23:00 -3°C° 0 mm 6 mps 742 mmHg 87%

    Pasado mañana, 17 Diciembre, Martes

    Tiempo Temperatura Precipitaciones Viento Presión Humedad
    00:00 -2°C° 0 mm 5 mps 742 mmHg 88%
    01:00 -2°C° 0 mm 5 mps 742 mmHg 90%
    02:00 -2°C° 0 mm 5 mps 743 mmHg 91%
    03:00 -2°C° 0 mm 4 mps 743 mmHg 92%
    04:00 -3°C° 0 mm 4 mps 743 mmHg 93%
    05:00 -3°C° 0 mm 4 mps 744 mmHg 94%
    06:00 -2°C° 0 mm 3 mps 744 mmHg 93%
    07:00 -2°C° 0 mm 3 mps 744 mmHg 93%
    08:00 -2°C° 0 mm 3 mps 744 mmHg 92%
    09:00 -1°C° 0 mm 3 mps 744 mmHg 88%
    10:00 0°C° 0 mm 3 mps 744 mmHg 84%
    11:00 -1°C° 0 mm 4 mps 744 mmHg 79%
    12:00 0°C° 0 mm 4 mps 744 mmHg 80%
    13:00 0°C° 0 mm 4 mps 743 mmHg 80%
    14:00 0°C° 0 mm 4 mps 743 mmHg 81%
    15:00 0°C° 0 mm 5 mps 742 mmHg 83%
    16:00 0°C° 0 mm 5 mps 742 mmHg 86%
    17:00 -1°C° 0 mm 6 mps 742 mmHg 88%
    18:00 -1°C° 0 mm 6 mps 741 mmHg 89%
    19:00 -1°C° 0 mm 6 mps 741 mmHg 90%
    20:00 -1°C° 0 mm 6 mps 741 mmHg 91%
    21:00 -1°C° 0 mm 6 mps 741 mmHg 91%
    22:00 -1°C° 0 mm 6 mps 741 mmHg 91%
    23:00 -1°C° 0 mm 6 mps 741 mmHg 91%

    18 Diciembre, Miércoles

    Tiempo Temperatura Precipitaciones Viento Presión Humedad
    00:00 -1°C° 0 mm 6 mps 741 mmHg 91%
    01:00 -1°C° 0 mm 6 mps 741 mmHg 92%
    02:00 0°C° 0 mm 5 mps 741 mmHg 92%
    03:00 0°C° 0 mm 5 mps 740 mmHg 92%
    04:00 -1°C° 0 mm 4 mps 740 mmHg 93%
    05:00 -1°C° 0 mm 4 mps 740 mmHg 94%
    06:00 0°C° 0 mm 3 mps 740 mmHg 94%
    07:00 0°C° 0 mm 3 mps 740 mmHg 95%
    08:00 0°C° 0 mm 3 mps 740 mmHg 95%
    09:00 0°C° 0 mm 3 mps 740 mmHg 94%
    10:00 0°C° 0 mm 3 mps 740 mmHg 93%
    11:00 +1°C° 0 mm 3 mps 740 mmHg 92%
    12:00 +1°C° 0 mm 3 mps 739 mmHg 93%
    13:00 +1°C° 0 mm 3 mps 739 mmHg 93%
    14:00 +1°C° 0 mm 3 mps 739 mmHg 94%
    15:00 0°C° 0 mm 3 mps 739 mmHg 94%
    16:00 0°C° 0 mm 3 mps 739 mmHg 94%
    17:00 0°C° 0 mm 3 mps 738 mmHg 95%
    18:00 0°C° 0 mm 3 mps 738 mmHg 94%
    19:00 -1°C° 0 mm 4 mps 738 mmHg 94%
    20:00 -1°C° 0 mm 4 mps 738 mmHg 94%
    21:00 -1°C° 0 mm 4 mps 738 mmHg 94%
    22:00 -1°C° 0 mm 4 mps 738 mmHg 94%
    23:00 -1°C° 0 mm 4 mps 737 mmHg 94%

    19 Diciembre, Jueves

    Tiempo Temperatura Precipitaciones Viento Presión Humedad
    00:00 -1°C° 0 mm 5 mps 737 mmHg 95%
    01:00 -1°C° 0 mm 5 mps 737 mmHg 96%
    02:00 -1°C° 0 mm 5 mps 737 mmHg 97%
    03:00 -2°C° 0 mm 6 mps 736 mmHg 97%
    04:00 -1°C° 0 mm 6 mps 736 mmHg 97%
    05:00 -1°C° 0 mm 6 mps 736 mmHg 97%
    06:00 -1°C° 0 mm 6 mps 736 mmHg 97%
    07:00 -1°C° 0 mm 6 mps 736 mmHg 96%
    08:00 +1°C° 0 mm 6 mps 737 mmHg 96%
    09:00 +1°C° 0 mm 5 mps 737 mmHg 96%
    10:00 +1°C° 0 mm 5 mps 737 mmHg 96%
    11:00 +1°C° 0 mm 4 mps 737 mmHg 96%
    12:00 +1°C° 0 mm 4 mps 737 mmHg 96%
    13:00 +1°C° 0 mm 4 mps 737 mmHg 95%
    14:00 +2°C° 0 mm 3 mps 737 mmHg 95%
    15:00 +1°C° 0 mm 3 mps 737 mmHg 95%
    16:00 +1°C° 0 mm 3 mps 738 mmHg 95%
    17:00 +1°C° 0 mm 3 mps 738 mmHg 96%
    18:00 +1°C° 0 mm 2 mps 738 mmHg 95%
    19:00 +1°C° 0 mm 2 mps 738 mmHg 95%
    20:00 +1°C° 0 mm 2 mps 738 mmHg 94%
    21:00 +1°C° 0 mm 2 mps 738 mmHg 93%
    22:00 +1°C° 0 mm 2 mps 738 mmHg 93%
    23:00 -1°C° 0 mm 2 mps 738 mmHg 92%

    20 Diciembre, Viernes

    Tiempo Temperatura Precipitaciones Viento Presión Humedad
    00:00 -1°C° 0 mm 2 mps 738 mmHg 93%
    01:00 -1°C° 0 mm 2 mps 738 mmHg 93%
    02:00 -2°C° 0 mm 2 mps 738 mmHg 93%
    03:00 -2°C° 0 mm 2 mps 738 mmHg 93%
    04:00 -2°C° 0 mm 2 mps 739 mmHg 93%
    05:00 -2°C° 0 mm 3 mps 739 mmHg 92%
    06:00 -2°C° 0 mm 3 mps 739 mmHg 88%
    07:00 -2°C° 0 mm 3 mps 739 mmHg 84%
    08:00 -1°C° 0 mm 3 mps 740 mmHg 80%
    09:00 -1°C° 0 mm 3 mps 740 mmHg 78%
    10:00 -1°C° 0 mm 3 mps 740 mmHg 75%
    11:00 -1°C° 0 mm 2 mps 740 mmHg 73%
    12:00 -1°C° 0 mm 2 mps 740 mmHg 74%
    13:00 -2°C° 0 mm 2 mps 740 mmHg 75%
    14:00 0°C° 0 mm 1 mps 740 mmHg 77%
    15:00 0°C° 0 mm 1 mps 740 mmHg 78%
    16:00 -1°C° 0 mm 1 mps 740 mmHg 80%
    17:00 -1°C° 0 mm 1 mps 741 mmHg 82%
    18:00 -1°C° 0 mm 1 mps 741 mmHg 82%
    19:00 -1°C° 0 mm 1 mps 741 mmHg 82%
    20:00 -1°C° 0 mm 1 mps 741 mmHg 82%
    21:00 -1°C° 0 mm 1 mps 741 mmHg 82%
    22:00 -1°C° 0 mm 1 mps 741 mmHg 82%
    23:00 -2°C° 0 mm 0 mps 741 mmHg 82%
    Mostrar más